Regional Weather Roundup
Issued by NWS

Current Version | Previous Version | Text Only | Print | Product List | Glossary On
Versions: 1 2 3 4 5 6 7 8 9 10 11 12 13 14 15 16 17 18 19 20 21 22 23 24 25 26 27 28 29 30 31 32 33 34 35 36 37 38 39 40 41 42 43 44 45 46 47 48 49 50
000
ASUS43 KDTX 020410
RWRMI
MICHIGAN HOURLY REGIONAL WEATHER ROUNDUP
NATIONAL WEATHER SERVICE DETROIT/PONTIAC MI
1200 AM EDT WED SEP 02 2015

NOTE: "FAIR" INDICATES FEW OR NO CLOUDS BELOW 12,000 FEET WITH NO
SIGNIFICANT WEATHER AND/OR OBSTRUCTION TO VISIBILITY.

MIZ047>049-052>055-059>063-066>070-074>076-081>083-020500-
SOUTHEAST LOWER MICHIGAN

CITY           SKY/WX    TMP DP  RH WIND       PRES   REMARKS
ADRIAN         CLEAR     72  66  81 SW3       30.09R
ALMA           CLEAR     72  71  97 CALM      30.05S FOG
ANN ARBOR      CLEAR     70  67  90 CALM      30.07S
BAD AXE        CLEAR     69  68  97 S3        30.04S FOG
DETROIT CITY   CLEAR     76  69  79 S3        30.06S
DETROIT        CLEAR     76  68  76 SW7       30.07R
FLINT          CLEAR     75  66  73 SW5       30.06R
GROSSE ILE     CLEAR     75  70  83 W3        30.05S
HILLSDALE      CLEAR     74  73  96 SW5       30.10R
HOWELL         CLEAR     74  68  82 S3        30.07R

CITY           SKY/WX    TMP DP  RH WIND       PRES   REMARKS
JACKSON        CLEAR     71  69  93 SW5       30.08R
LAMBERTVILLE   CLEAR     76  69  79 SW5       30.08S
LANSING        CLEAR     74  69  85 CALM      30.07R
LAPEER         NOT AVBL
MASON          CLEAR     70  65  85 S3        30.07S
MT. CLEMENS    CLEAR     72  69  90 S3        30.04S FOG
PONTIAC        PTCLDY    73  67  81 CALM      30.06S
PORT HOPE        N/A     73  69  87 VRB3      30.01F
PORT HURON     CLEAR     70  70 100 CALM      30.05S FOG
TRI CITIES     CLEAR     76  68  76 SW5       30.04S
YPSILANTI      CLEAR     75  68  78 SW6       30.08R
$$
MIZ043>046-050>051-056>058-064>065-071>073-077>080-020500-
SOUTHWEST LOWER MICHIGAN

CITY           SKY/WX    TMP DP  RH WIND       PRES   REMARKS
BATTLE CREEK   CLEAR     73  68  84 SW6       30.08R
BENTON HARBOR  CLEAR     76  70  82 S5        30.05S
BIG RAPIDS     CLEAR     70  69  97 CALM      30.04S FOG
COLDWATER      CLEAR     72  71  95 SW5       30.08S
HOLLAND        PTCLDY    74  71  91 S5        30.05R
GRAND RAPIDS   CLEAR     74  70  87 S7        30.05S
KALAMAZOO      CLEAR     73  69  87 S6        30.07S
MARSHALL       CLEAR     73  69  86 SW3       30.07S
MUSKEGON       PTCLDY    78  69  73 SW14      30.02S
$$
MIZ016>042-020500-
NORTHERN LOWER MICHIGAN

CITY           SKY/WX    TMP DP  RH WIND       PRES   REMARKS
ALPENA         CLEAR     74  68  81 SW5       30.01R
BEAVER ISLAND  PTCLDY    72  69  91 SW12G18   29.98S
BELLAIRE       PTCLDY    70  68  92 CALM      30.00S
CADILLAC         N/A     70  69  97 CALM      30.04S FOG
CHARLEVOIX     PTCLDY    75  69  80 S7        30.01S
FRANKFORT      CLEAR     76  71  84 SW3       29.99S
GAYLORD        CLEAR     72  70  93 SW3       30.04R
GRAYLING       CLEAR     71  69  93 SW3       30.04S
HARBOR SPRINGS PTCLDY    70  69  96 CALM      29.99S
HOUGHTON LAKE  CLEAR     73  70  90 SW3       30.05R
MANISTEE       PTCLDY    73  68  83 CALM      30.01R
OSCODA         CLEAR     69  67  94 SW3       30.01S
PELLSTON       PTCLDY    69  68  96 SE5       29.99S FOG
TRAVERSE CITY  CLEAR     77  70  79 CALM      29.98S
$$
MIZ007>008-015-020500-
EASTERN UPPER MICHIGAN

CITY           SKY/WX    TMP DP  RH WIND       PRES   REMARKS
KINROSS        PTCLDY    70  70 100 S5        29.98S
MACKINAC ISLAN PTCLDY    69  68  95 CALM      29.99S FOG
NEWBERRY       PTCLDY    69  68  97 SW8       29.96S FOG
S. S. MARIE    PTCLDY    69  67  93 CALM      29.97F FOG
$$
MIZ004>006-011>014-085-020500-
CENTRAL UPPER MICHIGAN

CITY           SKY/WX    TMP DP  RH WIND       PRES   REMARKS
MANISTIQUE     CLEAR     65  64  96 S6        29.95S FOG
ESCANABA       PTCLDY    68  64  88 CALM      29.94S
MENOMINEE      MOCLDY    73  66  78 SW5       29.95R
SAWYER-GWINN   PTCLDY    70  65  85 CALM      29.97S
$$
MIZ001>003-009>011-084-020500-
WESTERN UPPER MICHIGAN

CITY           SKY/WX    TMP DP  RH WIND       PRES   REMARKS
IRON MOUNTAIN  MOCLDY    69  66  90 CALM      29.97R
HOUGHTON       PTCLDY    68  67  96 NW7       29.95S FOG
IRONWOOD       CLEAR     70  68  94 CALM      29.94S
$$

ABBREVIATIONS USED IN REMARKS
   TC - TEMPERATURE IN CELSIUS
  WCI - WIND CHILL INDEX
   HX - HEAT INDEX
  VSB - VISIBILITY



USA.gov is the U.S. government's official web portal to all federal, state and local government web resources and services.